Regional Weather Roundup
Issued by NWS

Home | Current Version | Previous Version | Text Only | Print | Product List | Glossary Off
Versions: 1 2 3 4 5 6 7 8 9 10 11 12 13 14 15 16 17 18 19 20 21 22 23 24 25 26 27 28 29 30 31 32 33 34 35 36 37 38 39 40 41 42 43 44 45 46 47 48 49 50

486
ASUS43 KMPX 160310
RWRMN
WEATHER ROUNDUP FOR MINNESOTA
NATIONAL WEATHER SERVICE TWIN CITIES/CHANHASSEN MN
900 PM CST FRI DEC 15 2017


NOTE: "FAIR" INDICATES FEW OR NO CLOUDS BELOW 12,000 FEET WITH NO
SIGNIFICANT WEATHER AND/OR OBSTRUCTIONS TO VISIBILITY. N/A MEANS
CURRENT SKY AND/OR WEATHER CONDITIONS ARE NOT AVAILABLE.

MNZ060>063-068>070-160400-
   Twin Cities Metro

CITY           SKY/WX    TMP DP  RH WIND       PRES   REMARKS
TWIN CITIES    LGT SNOW  27  26  96 SE7       29.73F FOG     WCI  19
ST PAUL        LGT SNOW  26  25  96 SE6       29.75S FOG     WCI  19
CRYSTAL        LGT SNOW  27  23  85 SE5       29.71F FOG     WCI  22
BLAINE         FLURRIES  27  25  93 E5        29.72F WCI  21
LAKEVILLE      LGT SNOW  27  27 100 E3        29.72S
EDEN PRAIRIE   LGT SNOW  29  26  89 E6        29.71S FOG     WCI  23
SOUTH ST PAUL  MIX PCPN  27  26  96 CALM      29.73F
LAKE ELMO      LGT SNOW  27  23  86 CALM      29.74F
$$
MNZ001>005-007-008-013>017-022>024-027-028-160400-
   Northwest Minnesota

CITY           SKY/WX    TMP DP  RH WIND       PRES   REMARKS
BEMIDJI        LGT SNOW  15  12  90 E7        29.67S WCI   5
HALLOCK        LGT SNOW  18  14  86 E15       29.66F WCI   3
ROSEAU         LGT SNOW  12   9  85 E10       29.71F WCI  -1
WARROAD        LGT SNOW  10   7  85 E12       29.72F WCI  -4
THIEF RVR FALL LGT SNOW  16  13  88 E12       29.65F FOG     WCI   3
CROOKSTON      LGT SNOW  21  19  93 E10       29.64F WCI  10
FOSSTON        MIX PCPN  18  14  86 E7        29.64F WCI   8
DETROIT LAKES  LGT SNOW  23  23 100 SE8       29.63S WCI  14
MOORHEAD       CLOUDY    28  27  93 SE7       29.60F WCI  21
PARK RAPIDS    LGT SNOW  18  15  88 E5        29.64F FOG     WCI  11
MAHNOMEN       LGT SNOW  21  19  91 SE7       29.62F WCI  13
$$
MNZ006-009>011-018-025>026-160400-
   North Central Minnesota

CITY           SKY/WX    TMP DP  RH WIND       PRES   REMARKS
BAUDETTE       CLOUDY     9   5  84 E10       29.72F WCI  -5
FLAG ISLAND    CLOUDY     5   1  85 E8        29.75S WCI  -8
INTL FALLS     CLOUDY     5   0  79 E5        29.76S WCI  -4
WASKISH        CLOUDY    12   9  85 E5        29.71F WCI   4
BIG FORK       FLURRIES  12   7  79 CALM      29.72S
LONGVILLE      LGT SNOW  18  16  93 E3        29.69F
GRAND RAPIDS   LGT SNOW  14  10  85 CALM      29.73S FOG
CRANE LAKE     CLOUDY    -2  -6  84 CALM      29.80R
ORR            CLOUDY     7   1  78 CALM      29.71S
COOK           CLOUDY     9   3  78 CALM      29.74S
WALKER         LGT SNOW  16  14  90 E6        29.67F WCI   8
$$
MNZ012-019>021-037-160400-
   Northeast Minnesota

CITY           SKY/WX    TMP DP  RH WIND       PRES   REMARKS
DULUTH         FLURRIES  13   7  77 SE3       29.72S
ELY            CLOUDY    -2  -8  78 CALM      29.75S
HIBBING        CLOUDY    11   4  73 E5        29.73S WCI   3
EVELETH        CLOUDY    12   5  72 CALM      29.74S
DULUTH HARBOR  FLURRIES  18  10  73 SE3       29.79S
TWO HARBORS    CLOUDY    16   7  67 N3        29.74S
SILVER BAY     CLOUDY     7   3  85 CALM      29.75S
GRAND MARAIS     N/A      7  -2  66 VRB7      29.84S WCI  -5
G MARAIS ARPRT CLEAR     -8 -15  71 N6        29.72S WCI -21
$$
MNZ029>031-032-039>041-046>048-054>057-064-160400-
   West Central Minnesota

CITY           SKY/WX    TMP DP  RH WIND       PRES   REMARKS
FERGUS FALLS   CLOUDY    28  28 100 SE9       29.62F WCI  20
WHEATON        CLOUDY    30  28  93 SE9       29.61F WCI  22
MORRIS         CLOUDY    30  28  93 SE13      29.59F WCI  20
ALEXANDRIA     CLOUDY    27  26  96 SE10      29.63F WCI  17
ELBOW LAKE     MOCLDY    29  28  96 SE9       29.60F WCI  21
WADENA         MIX PCPN  21  19  93 E7        29.63F WCI  13
GLENWOOD       CLOUDY    28  27  93 SE9       29.63F WCI  20
APPLETON       MOCLDY    34  30  86 SE8       29.61F WCI  27
BENSON         CLOUDY    32  28  86 SE8       29.63F WCI  25
ORTONVILLE     CLOUDY    34  28  80 SE6       29.59F WCI  29
MADISON        CLOUDY    36  30  80 E6        29.62F
WILLMAR        CLOUDY    30  28  93 SE10      29.66F WCI  21
$$
MNZ033>034-036-042>043-049>051-058-059-160400-
   Central Minnesota

CITY           SKY/WX    TMP DP  RH WIND       PRES   REMARKS
ST CLOUD       LGT SNOW  22  21  96 SE3       29.70F FOG
SAUK CENTRE    FLURRIES  26  24  95 E6        29.66F WCI  19
PAYNESVILLE    LGT SNOW  28  27  98 SE7       29.67F WCI  20
PINE RIVER     LGT SNOW  18  14  86 E6        29.71F WCI   9
BRAINERD       LGT SNOW  20  17  88 CALM      29.69F FOG
STAPLES        MIX PCPN  19  18  93 E3        29.65F
LITTLE FALLS   LGT SNOW  23  18  80 SE6       29.69F WCI  16
LITCHFIELD     CLOUDY    28  28 100 SE6       29.68F WCI  22
BUFFALO        LGT SNOW  27  24  91 CALM      29.71F
MAPLE LAKE     MIX PCPN  27  26  95 CALM      29.71F
HUTCHINSON     CLOUDY    29  28  94 E3        29.69F
$$
MNZ037-044-045-052-053-160400-
   East Central Minnesota

CITY           SKY/WX    TMP DP  RH WIND       PRES   REMARKS
PRINCETON      LGT SNOW  23  19  86 E3        29.71S
MORA           LGT SNOW  19  16  86 CALM      29.74S
CAMBRIDGE      FLURRIES  23  18  80 E3        29.73S
RUSH CITY      LGT SNOW  19  17  90 CALM      29.74S
MOOSE LAKE     LGT SNOW  19  14  79 CALM      29.72S
HINCKLEY       LGT SNOW  19  18  93 CALM      29.74S
CLOQUET        CLOUDY    14   7  73 CALM      29.72F
MCGREGOR       CLOUDY    19  18  93 E5        29.72S WCI  13
$$
MNZ071>073-080-081-089-090-097-098-160400-
   Southwest Minnesota

CITY           SKY/WX    TMP DP  RH WIND       PRES   REMARKS
MONTEVIDEO     CLOUDY    34  30  86 S7        29.63F WCI  28
GRANITE FALLS  CLOUDY    35  30  82 E5        29.65F WCI  31
CANBY          CLOUDY    37  28  70 CALM      29.62F
MARSHALL       CLOUDY    36  26  67 CALM      29.63F
REDWOOD FALLS  CLOUDY    35  30  82 E7        29.65F WCI  29
OLIVIA         CLOUDY    34  32  93 SE3       29.66F
PIPESTONE      CLOUDY    36  25  64 SW10      29.61F
WINDOM           N/A     37  21  52 S9        29.64F
WORTHINGTON    CLOUDY    37  26  64 SW15      29.63F
JACKSON        CLOUDY    36  25  64 S10       29.65F
TRACY          CLOUDY    37  28  70 SW12      29.62S
SLAYTON        CLOUDY    36  27  70 SW12      29.63F
$$
MNZ065>067-074>077-082>085-091>093-160400-
   South Central Minnesota

CITY           SKY/WX    TMP DP  RH WIND       PRES   REMARKS
MANKATO        CLOUDY    33  29  85 SE6       29.69F WCI  28
NEW ULM        CLOUDY    34  27  75 E5        29.68S WCI  30
ST JAMES       CLOUDY    36  27  69 SE7       29.67F
FAIRMONT       CLOUDY    37  25  61 SW6       29.68F
GLENCOE        CLOUDY    31  31 100 E7        29.68F WCI  24
FARIBAULT      CLOUDY    32  28  86 CALM      29.71F
OWATONNA       CLOUDY    34  28  80 SE7       29.70F WCI  28
WASECA         CLOUDY    32  30  93 SE6       29.71F WCI  26
ALBERT LEA     CLOUDY    34  27  75 S3        29.70F
$$
MNZ078>079-086>088-094>096-160400-
   Southeast Minnesota

CITY           SKY/WX    TMP DP  RH WIND       PRES   REMARKS
ROCHESTER      CLOUDY    30  28  92 SE8       29.72F WCI  22
RED WING       LGT SNOW  28  27  93 SE5       29.74F WCI  23
STANTON        CLOUDY    32  28  86 CALM      29.72S
DODGE CENTER   CLOUDY    30  28  93 SE7       29.70F WCI  23
WINONA         FLURRIES  30  30 100 SE3       29.78F
AUSTIN         CLOUDY    34  27  75 CALM      29.71F
PRESTON        CLOUDY    30  27  90 CALM      29.74F
$$
ABBREVIATIONS USED IN REMARKS
   TC - TEMPERATURES IN CELSIUS
  WCI - WIND CHILL INDEX
   HX - HEAT INDEX
  VSB - VISIBILITY
$$




USA.gov is the U.S. government's official web portal to all federal, state and local government web resources and services.